FW4685 Weather Reports


Display with metric or nautical units.
time (UTC)temp
F
wind
direction
speed
MPH
gust
MPH
rain 1hr
in
rain 24hr
in
rain mn
in
humidity
%
barometer
mb
20260504081031 55 30 2.0 10.0 0.00 0.00 0.00 90 1015.8
20260504045030 54 10 0.0 0.0 0.00 0.00 0.00 94 1014.0
20260504044016 54 20 0.0 0.0 0.00 0.00 0.00 94 1013.8
20260504043110 54 21 0.0 0.0 0.00 0.00 0.00 94 1013.8
20260504042017 54 61 0.0 0.0 0.00 0.00 0.00 94 1013.8
20260504041038 54 115 0.0 0.0 0.00 0.00 0.00 94 1013.9
20260504040020 53 16 0.0 0.0 0.00 0.00 0.00 94 1013.9
20260504035022 53 319 0.0 0.0 0.00 0.00 0.00 94 1013.9
20260504034022 53 327 0.0 0.0 0.00 0.00 0.00 95 1013.8
20260504033026 53 13 0.0 0.0 0.00 0.00 0.00 95 1013.9
20260504032026 53 344 0.0 0.0 0.00 0.00 0.00 95 1013.8
20260504031026 53 15 0.0 0.0 0.00 0.00 0.00 95 1013.9
20260504030020 53 15 0.0 0.0 0.00 0.00 0.00 95 1013.9
20260504025041 53 118 0.0 0.0 0.00 0.00 0.00 95 1013.8
20260504024058 53 32 0.0 0.0 0.00 0.00 0.00 95 1013.7
20260504023017 52 327 0.0 0.0 0.00 0.00 0.00 95 1013.7
20260504022017 52 222 0.0 0.0 0.00 0.00 0.00 95 1013.6
20260504021020 52 223 0.0 0.0 0.00 0.00 0.00 94 1013.6
20260504020024 52 16 0.0 0.0 0.00 0.00 0.00 94 1013.6
20260504015028 52 7 0.0 0.0 0.00 0.00 0.00 94 1013.6
20260504014026 52 29 0.0 0.0 0.00 0.00 0.00 94 1013.5
20260504013046 53 35 0.0 0.0 0.00 0.00 0.00 93 1013.6
20260504012027 53 12 0.0 0.0 0.00 0.00 0.00 93 1013.5
20260504011026 53 51 0.0 0.0 0.00 0.00 0.00 92 1013.6
20260504010027 53 29 0.0 0.0 0.00 0.00 0.00 92 1013.6
20260504005028 53 80 0.0 0.0 0.00 0.00 0.00 92 1013.6
20260504004029 53 230 0.0 0.0 0.00 0.00 0.00 92 1013.6
20260504003030 53 66 0.0 0.0 0.00 0.00 0.00 92 1013.6
20260504002016 53 351 0.0 0.0 0.00 0.00 0.00 92 1013.4
20260504001018 54 11 0.0 0.0 0.00 0.00 0.00 91 1013.4
20260504000016 54 350 0.0 0.0 0.00 0.00 0.00 90 1013.5
20260503235017 55 2 0.0 0.0 0.00 0.00 0.00 89 1013.4
20260503234018 55 54 0.0 0.0 0.00 0.00 0.00 89 1013.4
20260503233019 55 31 0.0 0.0 0.00 0.00 0.00 89 1013.3
20260503232020 55 14 0.0 0.0 0.00 0.00 0.00 89 1013.3
20260503231023 55 54 0.0 0.0 0.00 0.00 0.00 89 1013.2
20260503230021 55 24 0.0 0.0 0.00 0.00 0.00 88 1013.2
20260503225021 55 175 0.0 2.0 0.00 0.00 0.00 88 1013.2
20260503224021 55 29 0.0 0.0 0.00 0.00 0.00 88 1013.1
20260503223019 55 16 0.0 0.0 0.00 0.00 0.00 89 1013.0
20260503222022 55 62 0.0 0.0 0.00 0.00 0.00 89 1012.9
20260503221045 55 26 0.0 0.0 0.00 0.00 0.00 89 1013.0
20260503220024 55 6 0.0 0.0 0.00 0.00 0.00 89 1012.9
20260503215026 55 357 0.0 0.0 0.00 0.00 0.00 88 1012.8
20260503214025 55 30 0.0 0.0 0.00 0.00 0.00 88 1012.8
20260503213044 55 20 0.0 0.0 0.00 0.00 0.00 87 1012.7
20260503212025 56 44 0.0 0.0 0.00 0.00 0.00 86 1012.7
20260503211025 56 47 0.0 0.0 0.00 0.00 0.00 85 1012.6
20260503210024 56 16 0.0 0.0 0.00 0.00 0.00 84 1012.5
20260503205026 57 26 0.0 0.0 0.00 0.00 0.00 83 1012.5
20260503204028 58 343 0.0 0.0 0.00 0.00 0.00 81 1012.2
20260503203016 58 38 0.0 0.0 0.00 0.00 0.00 79 1012.0
20260503202017 58 167 0.0 2.0 0.00 0.00 0.00 78 1011.8
20260503201020 58 10 0.0 0.0 0.00 0.00 0.00 77 1011.7
20260503200040 59 35 0.0 0.0 0.00 0.00 0.00 76 1011.7
20260503195020 59 10 0.0 0.0 0.00 0.00 0.00 76 1011.6
20260503194022 60 19 0.0 0.0 0.00 0.00 0.00 75 1011.5
20260503193024 60 327 0.0 0.0 0.00 0.00 0.00 74 1011.4
20260503192024 61 351 0.0 0.0 0.00 0.00 0.00 73 1011.4
20260503191026 61 303 0.0 2.0 0.00 0.00 0.00 74 1011.3
20260503190028 61 330 0.0 0.0 0.00 0.00 0.00 73 1011.1
20260503185016 62 311 0.0 0.0 0.00 0.00 0.00 72 1010.9
20260503184016 63 30 0.0 0.0 0.00 0.00 0.00 72 1011.0
20260503183016 64 16 0.0 0.0 0.00 0.00 0.00 71 1010.9
20260503182020 64 23 0.0 0.0 0.00 0.00 0.00 69 1010.7
20260503181020 64 18 0.0 0.0 0.00 0.00 0.00 66 1010.7
20260503180022 63 255 0.0 2.0 0.00 0.00 0.00 66 1010.6
20260503175024 63 56 0.0 0.0 0.00 0.00 0.00 70 1010.6
20260503174025 63 171 0.0 2.0 0.00 0.00 0.00 70 1010.6
20260503173025 64 42 0.0 0.0 0.00 0.00 0.00 69 1010.7
20260503172046 66 280 0.0 0.0 0.00 0.00 0.00 67 1010.6
20260503171030 67 133 0.0 2.0 0.00 0.00 0.00 65 1010.7
20260503131032 66 80 0.0 2.0 0.00 0.05 0.00 64 1011.3